Regional Weather Roundup
Issued by NWS Little Rock, AR

Home | Current Version | Previous Version | Graphics & Text | Print | Product List | Glossary Off
Versions: 1 2 3 4 5 6 7 8 9 10 11 12 13 14 15 16 17 18 19 20 21 22 23 24 25 26 27 28 29 30 31 32 33 34 35 36 37 38 39 40 41 42 43 44 45 46 47 48 49 50

000
ASUS44 KLZK 051405
RWRLZK

WEATHER ROUNDUP FOR ARKANSAS
NATIONAL WEATHER SERVICE LITTLE ROCK AR
900 AM CDT SAT SEP 05 2015

NOTE: "FAIR" INDICATES FEW OR NO CLOUDS BELOW 12,000 FEET WITH NO
SIGNIFICANT WEATHER AND/OR OBSTRUCTIONS TO VISIBILITY.

ARZ001-003-010-029-051500-
NORTHWEST ARKANSAS

CITY           SKY/WX    TMP DP  RH WIND       PRES   REMARKS
FAYETTEVILLE   SUNNY     74  70  87 CALM      30.10S
FORT SMITH     SUNNY     80  69  69 E8        30.04S
HARRISON       SUNNY     77  70  79 SE6       30.12S
BENTONVILLE    SUNNY     79  66  65 S7        30.10S
ROGERS         SUNNY     79  69  71 SE8       30.10S
SILOAM SPGS    SUNNY     77  66  69 SE6       30.08R
HIGHFILL       SUNNY     78  71  79 S5        30.09S
SPRINGDALE     SUNNY     79  68  69 SE5       30.12R
$$

ARZ004-005-016-051500-
NORTH CENTRAL ARKANSAS

CITY           SKY/WX    TMP DP  RH WIND       PRES   REMARKS
BATESVILLE     SUNNY     77  72  83 CALM      30.09R
FLIPPIN        SUNNY     75  66  73 CALM      30.08S
MTN HOME       SUNNY     78  70  76 CALM      30.10R
$$

ARZ040-041-051500-
WEST CENTRAL ARKANSAS

CITY           SKY/WX    TMP DP  RH WIND       PRES   REMARKS
MENA           SUNNY     79  72  78 CALM      30.08S
MOUNT IDA      SUNNY     80  70  71 VRB3      30.04S
$$

ARZ009-017-025-026-028-051500-
NORTHEAST ARKANSAS

CITY           SKY/WX    TMP DP  RH WIND       PRES   REMARKS
JONESBORO      SUNNY     79  73  82 CALM      30.07S
NEWPORT        SUNNY     80  74  82 CALM      30.09R
WALNUT RIDGE   SUNNY     79  72  78 CALM      30.08S
BLYTHEVILLE    SUNNY     81  75  82 E3        30.08S HX  87
$$

ARZ022-023-033-042-044-051500-
CENTRAL ARKANSAS

CITY           SKY/WX    TMP DP  RH WIND       PRES   REMARKS
LITTLE ROCK    SUNNY     82  72  71 NE6       30.06R HX  87
N LITTLE ROCK  SUNNY     82  74  76 E7        30.06R HX  88
JACKSONVILLE   SUNNY     82  72  72 E3        30.05S HX  87
SEARCY         SUNNY     82  73  74 CALM      30.08S HX  87
HOT SPRINGS    SUNNY     82  69  64 SE6       30.06R HX  85
RUSSELLVILLE   SUNNY     82  71  69 CALM      30.06R HX  86
$$

ARZ036-051500-
EAST ARKANSAS

CITY           SKY/WX    TMP DP  RH WIND       PRES   REMARKS
WEST MEMPHIS   SUNNY     82  74  76 E3        30.07R HX  88
$$

ARZ050-053-066-070-073-051500-
SOUTHWEST ARKANSAS

CITY           SKY/WX    TMP DP  RH WIND       PRES   REMARKS
ARKADELPHIA    FAIR      82  73  74 VRB3      30.05R HX  87
CAMDEN         SUNNY     81  72  74 CALM      30.03F
TEXARKANA      SUNNY     83  73  72 SW6       30.04S HX  89
EL DORADO      SUNNY     81  73  76 SW3       30.04S HX  86
DE QUEEN       SUNNY     80  73  79 E5        30.02S
$$

ARZ056-057-069-051500-
SOUTHEAST ARKANSAS

CITY           SKY/WX    TMP DP  RH WIND       PRES   REMARKS
PINE BLUFF     SUNNY     80  72  76 E3        30.05S
STUTTGART      SUNNY     81  72  74 E8        30.06S
MONTICELLO     SUNNY     82  74  76 VRB3      30.04S HX  88

$$





USA.gov is the U.S. government's official web portal to all federal, state and local government web resources and services.